Location: Amsterdam
(30.7274°N, 84.4357°W)
Time: 17:29:57
(UTC+00:00)

Injun/Solrad 3 - Pass Details

Date: 24 February 2026
Orbit: 871 x 985 km, 66.8° (Epoch: 11 March)

Event Time Altitude Azimuth Distance (km) Brightness Sun altitude
Rises 15:26:36 0° 222° (SW) 3,445 10.9 37.1°
Reaches altitude 10° 15:29:12 10° 229° (SW) 2,510 10.2 37.5°
Maximum altitude 15:34:39 42° 300° (WNW) 1,225 8.5 38.3°
Drops below altitude 10° 15:40:13 10° 10° (N) 2,554 10.0 39.2°
Sets 15:42:53 0° 18° (NNE) 3,510 10.7 39.6°
